LEMUR-2-GUSTAVO (43885 NORAD) Tracking and Keplerian Element Data

This shows tracking and keplerian element data for the satellite.

Feedback or suggestion? Click here.




ElementValue
Catalog43885
NameLEMUR-2-GUSTAVO
Epoch Orbit295
Epoch Day15.93861603
Epoch Year2019
RAAN286.121
Inclination97.7286
Eccentricity0.001159
Argument of Perigee171.7074
Mean Anonmoly188.4341
Mean Motion14.96458621
Decay Rate4.05E-06
L11 43885U 18111K 19015.93861603 .00000405 00000-0 40740-4 0 9990
L22 43885 97.7286 286.1210 0011590 171.7074 188.4341 14.96458621 2953

Live tracking and technical data element details for LEMUR-2-GUSTAVO (NORAD 43885). LEMUR-2-GUSTAVO can be tracked NOW for your location showing map with azimuth and elevation plus other details from your city location.

Track the satellite on the map from your city or location and see movement details for azimuth, elevation, latitude, longitude, range, height, and movement on the map or in text.







IsCatalogInMostPopularTable: catalog: 43885, numindb: 14
Update: records affected: 1



GetName: 43885 LEMUR-2-GUSTAVO

Hit Count: updated at: Thu, 17 Jan 2019 14:39:00 GMT